This is the latest recevied weather packets stored in our database for station/object SR5MRF. If no packets are shown the sender has not sent any weather packets the latest 10 day(s).
| Time | Temp. | Humidity | Pressure | Rain* | Wind** | Luminosity | Snow |
|---|---|---|---|---|---|---|---|
| 1777704527 | 22.22° C | 44% | 1022.6 hPa | 0 mm | - | - | - |
| 1777704107 | 21.67° C | 46% | 1022.8 hPa | 0 mm | - | - | - |
| 1777703928 | 21.11° C | 47% | 1022.6 hPa | 0 mm | - | - | - |
| 1777703687 | 20.56° C | 47% | 1022.9 hPa | 0 mm | - | - | - |
| 1777703328 | 20.56° C | 48% | 1022.8 hPa | 0 mm | - | - | - |
| 1777703267 | 20° C | 49% | 1022.8 hPa | 0 mm | - | - | - |
| 1777702847 | 19.44° C | 50% | 1022.7 hPa | 0 mm | - | - | - |
| 1777702728 | 18.89° C | 51% | 1022.9 hPa | 0 mm | - | - | - |
| 1777702427 | 18.89° C | 52% | 1022.8 hPa | 0 mm | - | - | - |
| 1777702128 | 17.22° C | 55% | 1022.6 hPa | 0 mm | - | - | - |
| 1777702007 | 17.22° C | 56% | 1022.7 hPa | 0 mm | - | - | - |
| 1777701587 | 15.56° C | 58% | 1022.7 hPa | 0 mm | - | - | - |
| 1777701528 | 15.56° C | 58% | 1022.6 hPa | 0 mm | - | - | - |
| 1777701167 | 14.44° C | 61% | 1022.9 hPa | 0 mm | - | - | - |
| 1777700928 | 13.33° C | 62% | 1022.9 hPa | 0 mm | - | - | - |
| 1777700747 | 12.78° C | 63% | 1022.8 hPa | 0 mm | - | - | - |
| 1777700327 | 11.11° C | 65% | 1023 hPa | 0 mm | - | - | - |
| 1777699907 | 10.56° C | 66% | 1022.8 hPa | 0 mm | - | - | - |
| 1777699728 | 10.56° C | 66% | 1022.9 hPa | 0 mm | - | - | - |
| 1777699487 | 10.56° C | 66% | 1022.8 hPa | 0 mm | - | - | - |
| 1777699128 | 10° C | 67% | 1023 hPa | 0 mm | - | - | - |
| 1777699067 | 10° C | 67% | 1023 hPa | 0 mm | - | - | - |
| 1777698647 | 9.44° C | 68% | 1022.9 hPa | 0 mm | - | - | - |
| 1777698528 | 9.44° C | 68% | 1023 hPa | 0 mm | - | - | - |
| 1777698227 | 9.44° C | 68% | 1023 hPa | 0 mm | - | - | - |
* Rain latest hour (hover to see other rain measurements)
** Current wind speed in m/s (hover to see current wind gust speed)